This demonstration page uses our WeatherBlox Daily Observations layout. Learn more.

Left ArrowRight Arrow

41.55636, -103.73856

Hourly Observations for June 2, 2018

Temp ( °F °C ) Dew Point ( °F °C ) Humidity (%) Winds ( mph kmh ) Pressure ( in mb ) Visibility ( mi km ) Precip ( " mm )
12:58 am 00:58 Clear 51 10.8 46 7.7 81 81 N 20 31 30.02 1017 10 16 N/A
1:58 am 01:58 Clear 50 10 44 6.5 79 79 NNW 14 22 30.04 1017 10 16 N/A
2:58 am 02:58 Clear 47 8.3 43 6.3 87 87 N 14 22 30.06 1018 10 16 N/A
3:58 am 03:58 Clear 46 7.6 43 6.1 90 90 NNW 12 19 30.09 1019 10 16 N/A
4:58 am 04:58 Clear 44 6.5 41 5.2 92 92 WNW 9 15 30.15 1021 10 16 N/A
5:58 am 05:58 Sunny 44 6.5 42 5.3 92 92 WNW 10 17 30.20 1023 10 16 N/A
6:58 am 06:58 Sunny 48 9.1 44 6.8 86 86 NW 8 13 30.22 1023 10 16 N/A
7:58 am 07:58 Sunny 54 12.1 43 5.9 66 66 NNW 14 22 30.22 1023 10 16 N/A
8:58 am 08:58 Sunny 56 13.6 41 5.1 57 57 NW 15 24 30.22 1023 10 16 N/A
9:58 am 09:58 Sunny 60 15.7 37 2.5 41 41 NNW 16 26 30.23 1024 10 16 N/A
10:58 am 10:58 Sunny 63 17 35 1.8 36 36 NW 16 26 30.22 1023 10 16 N/A
11:58 am 11:58 Sunny 65 18.1 36 2 34 34 NW 17 28 30.22 1023 10 16 N/A
12:58 pm 12:58 Sunny 66 18.7 37 3 35 35 NNW 15 24 30.21 1023 10 16 N/A
1:58 pm 13:58 Sunny 67 19.4 38 3.2 34 34 NW 7 11 30.21 1023 10 16 N/A
2:58 pm 14:58 Sunny 69 20.6 36 2.4 30 30 NNW 14 22 30.19 1022 10 16 N/A
3:58 pm 15:58 Sunny 70 21.3 39 4 32 32 N 14 22 30.19 1022 10 16 N/A
4:58 pm 16:58 Sunny 70 21.3 37 2.9 30 30 N 12 19 30.19 1022 10 16 N/A
5:58 pm 17:58 Sunny 69 20.8 37 2.7 30 30 NE 7 11 30.18 1022 10 16 N/A
6:58 pm 18:58 Sunny 67 19.7 38 3.5 34 34 N 10 17 30.17 1022 10 16 N/A
7:58 pm 19:58 Sunny 63 17.3 40 4.5 43 43 Calm 30.18 1022 10 16 N/A
8:58 pm 20:58 Clear 60 15.8 40 4.7 48 48 Calm 30.21 1023 10 16 N/A
9:58 pm 21:58 Clear 56 13.6 38 3.1 49 49 W 3 6 30.23 1024 10 16 N/A
10:58 pm 22:58 Clear 55 12.7 40 4.2 57 57 NNE 5 7 30.24 1024 10 16 N/A
11:58 pm 23:58 Clear 55 12.6 37 3 52 52 E 7 11 30.23 1024 10 16 N/A

Powered by AerisWeather